This is the latest recevied weather packets stored in our database for station/object KD4EG. If no packets are shown the sender has not sent any weather packets the latest 10 day(s).
| Time | Temp. | Humidity | Pressure | Rain* | Wind** | Luminosity | Snow |
|---|---|---|---|---|---|---|---|
| 1777508989 | 16.11° C | 99% | 1010.9 hPa | 0 mm | - | 0 W/m² | - |
| 1777508686 | 16.67° C | 99% | 1010.8 hPa | 0 mm | - | 0 W/m² | - |
| 1777508383 | 16.67° C | 99% | 1010.8 hPa | 0 mm | - | 0 W/m² | - |
| 1777508080 | 16.67° C | 99% | 1010.7 hPa | 0 mm | - | 0 W/m² | - |
| 1777507777 | 17.22° C | 99% | 1010.7 hPa | 0 mm | - | 0 W/m² | - |
| 1777507474 | 17.22° C | 99% | 1010.5 hPa | 0 mm | - | 1 W/m² | - |
| 1777507170 | 17.22° C | 99% | 1010.3 hPa | 0 mm | - | 3 W/m² | - |
| 1777506868 | 17.22° C | 99% | 1010.4 hPa | 0 mm | - | 3 W/m² | - |
| 1777506565 | 17.22° C | 99% | 1010.3 hPa | 0 mm | - | 5 W/m² | - |
| 1777506261 | 17.22° C | 99% | 1010.4 hPa | 0 mm | - | 7 W/m² | - |
| 1777505958 | 17.22° C | 99% | 1009.8 hPa | 0 mm | - | 10 W/m² | - |
| 1777505653 | 17.22° C | 99% | 1009.9 hPa | 0 mm | - | 17 W/m² | - |
| 1777505350 | 17.22° C | 99% | 1009.8 hPa | 0 mm | - | 27 W/m² | - |
| 1777505047 | 17.22° C | 99% | 1009.7 hPa | 1.78 mm | - | 35 W/m² | - |
| 1777504744 | 17.22° C | 99% | 1009.3 hPa | 6.1 mm | - | 43 W/m² | - |
| 1777504441 | 17.22° C | 99% | 1009.6 hPa | 7.11 mm | - | 32 W/m² | - |
| 1777504136 | 17.22° C | 99% | 1010.1 hPa | 3.05 mm | - | 17 W/m² | - |
| 1777503832 | 17.22° C | 99% | 1009.9 hPa | 0 mm | - | 15 W/m² | - |
| 1777503529 | 17.78° C | 99% | 1009.5 hPa | 0 mm | - | 49 W/m² | - |
| 1777503225 | 17.78° C | 99% | 1009.5 hPa | 0 mm | - | 36 W/m² | - |
| 1777502922 | 17.78° C | 99% | 1009.4 hPa | 0 mm | - | 43 W/m² | - |
| 1777502619 | 17.78° C | 99% | 1009.5 hPa | 0 mm | - | 64 W/m² | - |
| 1777502316 | 17.78° C | 99% | 1009.6 hPa | 0 mm | - | 50 W/m² | - |
| 1777502013 | 17.22° C | 99% | 1009.3 hPa | 0 mm | - | 40 W/m² | - |
| 1777501709 | 17.22° C | 99% | 1009.5 hPa | 0 mm | - | 40 W/m² | - |
* Rain latest hour (hover to see other rain measurements)
** Current wind speed in m/s (hover to see current wind gust speed)